Skip Page Navigation
NASA JPL Caltech
NASA Logo - Jet Propulsion Laboratory + View the NASA Portal
+ Center for Near-Earth Object Studies
JPL Home Earth Solar System Stars & Galaxies Technology
JPL Solar System Dynamics
BODIES ORBITS EPHEMERIDES TOOLS PHYSICAL DATA DISCOVERY FAQ SITE MAP
IMPORTANT: The SSD Announcement email list is now available. Major changes are coming in the near future, including possible hostname and/or URL changes. To be notified of such changes, subscribe to this email list.

Please visit this page for more details.


JPL Small-Body Database Browser
Search: [ help ]  
376665 (2013 QC10)
Classification: Main-belt Asteroid          SPK-ID: 2376665
Ephemeris | Orbit Diagram | Orbital Elements | Mission Design | Physical Parameters | Discovery Circumstances | Close-Approach Data ]

[ show orbit diagram ]
Orbital Elements at Epoch 2459000.5 (2020-May-31.0) TDB
Reference: JPL 13 (heliocentric ecliptic J2000)
 Element Value Uncertainty (1-sigma)   Units 
e .1334335639918405 4.0536e-08  
a 2.308987550123312 2.0532e-08 au
q 2.000891112097571 1.0045e-07 au
i 2.464611255642609 9.6125e-06 deg
node 316.6836796045704 0.00015137 deg
peri 290.9417240084349 0.00015969 deg
M 55.28607550812756 5.4698e-05 deg
tp 2458803.691398399559
(2019-Nov-16.19139840)
0.00019362 TDB
period 1281.536009293027
3.51
1.7093e-05
4.68e-08
d
yr
n .2809129024775495 3.7469e-09 deg/d
Q 2.617083988149054 2.3271e-08 au
  Orbit Determination Parameters
   # obs. used (total)      145  
   data-arc span      7127 days (19.51 yr)  
   first obs. used      1999-10-02  
   last obs. used      2019-04-07  
   planetary ephem.      DE431  
   SB-pert. ephem.      SB431-N16  
   condition code      0  
   norm. resid. RMS      .58239  
   source      ORB  
   producer      Otto Matic  
   solution date      2020-Feb-26 02:47:38  

Additional Information
 Earth MOID = .988731 au 
 Jupiter MOID = 2.4118 au 
 T_jup = 3.573 
[ show covariance matrix ]

Ephemeris | Orbit Diagram | Orbital Elements | Mission Design | Physical Parameters | Discovery Circumstances | Close-Approach Data ]

Physical Parameter Table
Parameter Symbol Value Units Sigma Reference Notes
absolute magnitude H 18.1   n/a MPO427871  

376665 (2013 QC10)          Discovered 2005-Mar-03 by CSS at Catalina
Reference: Last Updated: 2013-10-21

[ show close-approach data ]
Alternate Designations
 2013 QC10 = 2005 EZ134 = 2012 FQ2 
Ephemeris | Orbit Diagram | Orbital Elements | Mission Design | Physical Parameters | Discovery Circumstances | Close-Approach Data ]
ABOUT SSD CREDITS/AWARDS PRIVACY/COPYRIGHT GLOSSARY LINKS
FirstGov 2020-Mar-28 16:20 UT
(server date/time)  
NASA Home Page
Site Manager:   Ryan S. Park
Webmaster  Alan B. Chamberlin